When you browse on this site, cookies collect data to enhance your experience and personalize the content and advertising you see.
Visit our Privacy Policy to learn more. By continuing to use the site, you agree to this use of cookies and data.
  • In Hungary
  • List of Countries
  • For 7 days
  • Water Temperature
  • Satellite Maps
  • Weather Map
  • News
  • Weather Widgets
  • user-avatar
    Login

    Hourly Weather Bolshoy Krasnyy Yar

    Today, 21 May, Tuesday

    Time Temperature Precipitation Wind Pressure Humidity
    00:00 +3°C° 0 mm 3 mps 755 mmHg 77%
    01:00 +3°C° 0 mm 3 mps 755 mmHg 79%
    02:00 +3°C° 0 mm 3 mps 755 mmHg 80%
    03:00 +2°C° 0 mm 3 mps 755 mmHg 81%
    04:00 +4°C° 0 mm 4 mps 756 mmHg 76%
    05:00 +5°C° 0 mm 4 mps 756 mmHg 72%
    06:00 +6°C° 0 mm 4 mps 756 mmHg 67%
    07:00 +8°C° 0 mm 5 mps 756 mmHg 60%
    08:00 +9°C° 0 mm 5 mps 756 mmHg 53%
    09:00 +10°C° 0 mm 6 mps 756 mmHg 46%
    10:00 +12°C° 0 mm 5 mps 756 mmHg 45%
    11:00 +12°C° 0 mm 5 mps 756 mmHg 45%
    12:00 +13°C° 0 mm 5 mps 756 mmHg 44%
    13:00 +13°C° 0 mm 5 mps 756 mmHg 43%
    14:00 +13°C° 0 mm 5 mps 755 mmHg 43%
    15:00 +14°C° 0 mm 5 mps 755 mmHg 43%
    16:00 +13°C° 0 mm 4 mps 755 mmHg 48%
    17:00 +13°C° 0 mm 3 mps 755 mmHg 52%
    18:00 +14°C° 0 mm 2 mps 755 mmHg 57%
    19:00 +12°C° 0 mm 2 mps 755 mmHg 59%
    20:00 +10°C° 0 mm 2 mps 755 mmHg 61%
    21:00 +9°C° 0 mm 1 mps 755 mmHg 63%
    22:00 +9°C° 0 mm 1 mps 755 mmHg 63%
    23:00 +8°C° 0 mm 2 mps 755 mmHg 64%

    Tomorrow, 22 May, Wednesday

    Time Temperature Precipitation Wind Pressure Humidity
    00:00 +7°C° 0 mm 2 mps 755 mmHg 64%
    01:00 +7°C° 0 mm 2 mps 755 mmHg 66%
    02:00 +7°C° 0 mm 2 mps 755 mmHg 68%
    03:00 +7°C° 0 mm 3 mps 755 mmHg 69%
    04:00 +8°C° 0 mm 3 mps 755 mmHg 72%
    05:00 +8°C° 0 mm 3 mps 755 mmHg 76%
    06:00 +9°C° 0 mm 3 mps 754 mmHg 79%
    07:00 +10°C° 0 mm 3 mps 754 mmHg 75%
    08:00 +11°C° 0 mm 4 mps 754 mmHg 72%
    09:00 +12°C° 0 mm 4 mps 753 mmHg 68%
    10:00 +12°C° 0 mm 4 mps 753 mmHg 70%
    11:00 +13°C° 0 mm 4 mps 753 mmHg 72%
    12:00 +13°C° 0 mm 5 mps 752 mmHg 75%
    13:00 +13°C° 0 mm 4 mps 752 mmHg 76%
    14:00 +13°C° 0 mm 4 mps 751 mmHg 77%
    15:00 +13°C° 0 mm 4 mps 751 mmHg 78%
    16:00 +12°C° 0 mm 4 mps 751 mmHg 82%
    17:00 +12°C° 0 mm 3 mps 750 mmHg 85%
    18:00 +11°C° 0 mm 3 mps 750 mmHg 88%
    19:00 +11°C° 0.2 mm 3 mps 750 mmHg 91%
    20:00 +11°C° 0.2 mm 3 mps 749 mmHg 94%
    21:00 +11°C° 0.2 mm 3 mps 749 mmHg 97%
    22:00 +11°C° 0.3 mm 3 mps 749 mmHg 97%
    23:00 +12°C° 0.3 mm 4 mps 748 mmHg 96%

    Day after tomorrow, 23 May, Thursday

    Time Temperature Precipitation Wind Pressure Humidity
    00:00 +12°C° 0.3 mm 4 mps 748 mmHg 96%
    01:00 +12°C° 0.2 mm 4 mps 748 mmHg 96%
    02:00 +11°C° 0.2 mm 3 mps 747 mmHg 96%
    03:00 +11°C° 0.2 mm 3 mps 747 mmHg 96%
    04:00 +11°C° 0.1 mm 4 mps 746 mmHg 95%
    05:00 +12°C° 0.1 mm 5 mps 746 mmHg 94%
    06:00 +13°C° 0.1 mm 6 mps 746 mmHg 94%
    07:00 +14°C° 0.2 mm 7 mps 745 mmHg 88%
    08:00 +15°C° 0.2 mm 8 mps 745 mmHg 82%
    09:00 +16°C° 0.2 mm 9 mps 745 mmHg 77%
    10:00 +16°C° 0.6 mm 8 mps 744 mmHg 80%
    11:00 +15°C° 0.6 mm 8 mps 744 mmHg 84%
    12:00 +15°C° 0.6 mm 8 mps 743 mmHg 87%
    13:00 +15°C° 1.4 mm 7 mps 743 mmHg 87%
    14:00 +15°C° 1.4 mm 7 mps 743 mmHg 86%
    15:00 +16°C° 1.4 mm 6 mps 743 mmHg 86%
    16:00 +15°C° 2 mm 6 mps 743 mmHg 87%
    17:00 +15°C° 2 mm 5 mps 743 mmHg 89%
    18:00 +15°C° 2 mm 4 mps 743 mmHg 90%
    19:00 +13°C° 0 mm 4 mps 744 mmHg 89%
    20:00 +11°C° 0 mm 4 mps 744 mmHg 88%
    21:00 +8°C° 0 mm 4 mps 745 mmHg 86%
    22:00 +8°C° 0 mm 4 mps 746 mmHg 87%
    23:00 +7°C° 0 mm 4 mps 746 mmHg 88%

    24 May, Friday

    Time Temperature Precipitation Wind Pressure Humidity
    00:00 +6°C° 0 mm 4 mps 747 mmHg 89%
    01:00 +5°C° 0 mm 4 mps 748 mmHg 88%
    02:00 +4°C° 0 mm 4 mps 748 mmHg 86%
    03:00 +4°C° 0 mm 3 mps 749 mmHg 85%
    04:00 +4°C° 0 mm 3 mps 750 mmHg 81%
    05:00 +4°C° 0 mm 4 mps 750 mmHg 78%
    06:00 +5°C° 0 mm 4 mps 751 mmHg 74%
    07:00 +6°C° 0 mm 4 mps 751 mmHg 67%
    08:00 +8°C° 0 mm 3 mps 752 mmHg 60%
    09:00 +9°C° 0 mm 3 mps 752 mmHg 53%
    10:00 +10°C° 0 mm 3 mps 752 mmHg 51%
    11:00 +10°C° 0 mm 3 mps 753 mmHg 49%
    12:00 +11°C° 0 mm 3 mps 753 mmHg 47%
    13:00 +12°C° 0 mm 3 mps 753 mmHg 47%
    14:00 +12°C° 0 mm 3 mps 753 mmHg 47%
    15:00 +12°C° 0 mm 3 mps 753 mmHg 47%
    16:00 +13°C° 0 mm 2 mps 753 mmHg 51%
    17:00 +13°C° 0 mm 2 mps 753 mmHg 55%
    18:00 +13°C° 0 mm 1 mps 753 mmHg 59%
    19:00 +11°C° 0 mm 1 mps 754 mmHg 60%
    20:00 +10°C° 0 mm 1 mps 754 mmHg 61%
    21:00 +7°C° 0 mm 0 mps 754 mmHg 63%
    22:00 +7°C° 0 mm 0 mps 754 mmHg 64%
    23:00 +6°C° 0 mm 0 mps 754 mmHg 65%

    25 May, Saturday

    Time Temperature Precipitation Wind Pressure Humidity
    00:00 +6°C° 0 mm 0 mps 755 mmHg 66%
    01:00 +5°C° 0 mm 0 mps 755 mmHg 67%
    02:00 +5°C° 0 mm 0 mps 755 mmHg 68%
    03:00 +5°C° 0 mm 0 mps 755 mmHg 68%
    04:00 +7°C° 0 mm 1 mps 755 mmHg 68%
    05:00 +8°C° 0 mm 1 mps 756 mmHg 68%
    06:00 +9°C° 0 mm 1 mps 756 mmHg 67%
    07:00 +11°C° 0 mm 1 mps 756 mmHg 63%
    08:00 +12°C° 0 mm 2 mps 756 mmHg 58%
    09:00 +13°C° 0 mm 2 mps 756 mmHg 54%
    10:00 +14°C° 0 mm 2 mps 756 mmHg 52%
    11:00 +14°C° 0 mm 3 mps 756 mmHg 50%
    12:00 +16°C° 0 mm 3 mps 755 mmHg 48%
    13:00 +16°C° 0 mm 3 mps 755 mmHg 49%
    14:00 +16°C° 0 mm 3 mps 755 mmHg 49%
    15:00 +17°C° 0 mm 3 mps 754 mmHg 50%
    16:00 +16°C° 0 mm 3 mps 754 mmHg 55%
    17:00 +16°C° 0 mm 3 mps 754 mmHg 60%
    18:00 +16°C° 0 mm 3 mps 754 mmHg 66%
    19:00 +13°C° 0 mm 3 mps 754 mmHg 69%
    20:00 +12°C° 0 mm 3 mps 754 mmHg 72%
    21:00 +11°C° 0 mm 4 mps 754 mmHg 75%
    22:00 +10°C° 0 mm 4 mps 753 mmHg 73%
    23:00 +9°C° 0 mm 5 mps 753 mmHg 72%

    26 May, Sunday

    Time Temperature Precipitation Wind Pressure Humidity
    00:00 +9°C° 0 mm 5 mps 753 mmHg 70%
    01:00 +9°C° 0 mm 5 mps 753 mmHg 69%
    02:00 +9°C° 0 mm 5 mps 752 mmHg 68%
    03:00 +9°C° 0 mm 5 mps 752 mmHg 68%
    04:00 +9°C° 0 mm 5 mps 752 mmHg 68%
    05:00 +10°C° 0 mm 6 mps 752 mmHg 69%
    06:00 +10°C° 0 mm 6 mps 751 mmHg 69%
    07:00 +13°C° 0 mm 6 mps 751 mmHg 69%
    08:00 +14°C° 0 mm 6 mps 750 mmHg 69%
    09:00 +16°C° 0 mm 6 mps 750 mmHg 68%
    10:00 +17°C° 0 mm 6 mps 750 mmHg 66%
    11:00 +20°C° 0 mm 6 mps 749 mmHg 64%
    12:00 +22°C° 0 mm 6 mps 749 mmHg 62%
    13:00 +21°C° 0 mm 6 mps 749 mmHg 63%
    14:00 +21°C° 0 mm 6 mps 748 mmHg 65%
    15:00 +21°C° 0 mm 6 mps 748 mmHg 66%
    16:00 +21°C° 0.3 mm 5 mps 747 mmHg 70%
    17:00 +21°C° 0.3 mm 5 mps 747 mmHg 73%
    18:00 +21°C° 0.3 mm 4 mps 746 mmHg 77%
    19:00 +19°C° 0.1 mm 4 mps 746 mmHg 78%
    20:00 +18°C° 0.1 mm 4 mps 745 mmHg 79%
    21:00 +17°C° 0.1 mm 4 mps 745 mmHg 80%
    22:00 +15°C° 0.1 mm 5 mps 745 mmHg 83%
    23:00 +15°C° 0.1 mm 5 mps 744 mmHg 85%
    Show more